NOZ1972 ENGM-ENEV

Flight info

Callsign NOZ1972
Flight time 1h 25m
Altitude 36000
Route RIBBE DCT GIGNI DCT SOMUB DCT TUXOT DCT VABOT DCT PENNO
Aircraft B738/M-SDE2E3FGHIRWXY/LB1

Departure

Time 2026-05-06 12:13
Airport Oslo-Gardermoen International Airport (ENGM)

Arrival

Time 2026-05-06 13:38
Airport Harstad/Narvik Airport (ENEV)
Time Latitude Longitude Altitude Speed Heading
2026-05-06 11:51 60.19631 11.09954 678 ft 0 kts 106°
2026-05-06 12:01 60.19632 11.09949 684 ft 3 kts 106°
2026-05-06 12:01 60.19639 11.09897 678 ft 4 kts 106°
2026-05-06 12:02 60.19644 11.09863 682 ft 0 kts 106°
2026-05-06 12:03 60.19645 11.09866 681 ft 1 kts 91°
2026-05-06 12:04 60.19652 11.09872 678 ft 1 kts 12°
2026-05-06 12:04 60.19677 11.09830 684 ft 11 kts 314°
2026-05-06 12:04 60.19719 11.09650 682 ft 18 kts 285°
2026-05-06 12:04 60.19754 11.09403 678 ft 18 kts 286°
2026-05-06 12:05 60.19788 11.09165 682 ft 17 kts 286°
2026-05-06 12:05 60.19824 11.08919 678 ft 21 kts 286°
2026-05-06 12:05 60.19876 11.08738 678 ft 13 kts 350°
2026-05-06 12:05 60.19967 11.08782 677 ft 15 kts 16°
2026-05-06 12:06 60.20093 11.08855 678 ft 22 kts 16°
2026-05-06 12:06 60.20244 11.08941 680 ft 22 kts 16°
2026-05-06 12:06 60.20397 11.09030 681 ft 24 kts 16°
2026-05-06 12:06 60.20571 11.09130 681 ft 27 kts 16°
2026-05-06 12:07 60.20743 11.09229 683 ft 25 kts 16°
2026-05-06 12:07 60.20903 11.09322 684 ft 23 kts 16°
2026-05-06 12:07 60.21061 11.09413 683 ft 25 kts 15°
2026-05-06 12:07 60.21241 11.09516 686 ft 29 kts 16°
2026-05-06 12:08 60.21419 11.09620 679 ft 18 kts 16°
2026-05-06 12:08 60.21515 11.09611 681 ft 12 kts 325°
2026-05-06 12:08 60.21550 11.09479 683 ft 11 kts 285°
2026-05-06 12:08 60.21559 11.09413 681 ft 0 kts 285°
2026-05-06 12:11 60.21567 11.09360 680 ft 7 kts 285°
2026-05-06 12:11 60.21572 11.09225 683 ft 12 kts 254°
2026-05-06 12:11 60.21514 11.09116 681 ft 11 kts 198°
2026-05-06 12:12 60.21505 11.09110 683 ft 0 kts 197°
2026-05-06 12:12 60.21503 11.09109 683 ft 3 kts 197°
2026-05-06 12:12 60.21216 11.08945 681 ft 90 kts 195°
2026-05-06 12:13 60.20360 11.08457 720 ft 166 kts 195°
2026-05-06 12:13 60.19242 11.07793 1787 ft 166 kts 199°
2026-05-06 12:13 60.18128 11.07092 3002 ft 169 kts 199°
2026-05-06 12:13 60.16986 11.06354 4108 ft 174 kts 207°
2026-05-06 12:14 60.16131 11.04643 4969 ft 190 kts 245°
2026-05-06 12:14 60.15604 11.01990 5251 ft 219 kts 248°
2026-05-06 12:14 60.14963 10.99052 5625 ft 238 kts 246°
2026-05-06 12:14 60.14326 10.95814 5974 ft 259 kts 257°
2026-05-06 12:15 60.14418 10.92228 6851 ft 260 kts 284°
2026-05-06 12:15 60.14815 10.88670 7768 ft 264 kts 278°
2026-05-06 12:15 60.15117 10.85004 8635 ft 268 kts 283°
2026-05-06 12:15 60.15976 10.81677 9521 ft 276 kts 314°
2026-05-06 12:16 60.17631 10.79680 10341 ft 286 kts 339°
2026-05-06 12:16 60.19675 10.78916 10621 ft 313 kts 352°
2026-05-06 12:16 60.21932 10.78703 10957 ft 336 kts
2026-05-06 12:16 60.24195 10.80134 11586 ft 353 kts 30°
2026-05-06 12:17 60.26020 10.83517 12349 ft 362 kts 46°
2026-05-06 12:17 60.27715 10.87336 13057 ft 369 kts 45°
2026-05-06 12:17 60.29452 10.91133 13748 ft 376 kts 44°
2026-05-06 12:17 60.31264 10.94998 14419 ft 382 kts 43°
2026-05-06 12:18 60.33124 10.98882 15081 ft 388 kts 42°
2026-05-06 12:18 60.35027 11.02804 15697 ft 394 kts 41°
2026-05-06 12:18 60.36965 11.06778 16337 ft 400 kts 41°
2026-05-06 12:18 60.38942 11.10828 16980 ft 406 kts 41°
2026-05-06 12:19 60.40942 11.14931 17622 ft 413 kts 41°
2026-05-06 12:19 60.42973 11.19107 18235 ft 418 kts 41°
2026-05-06 12:19 60.45182 11.22922 18721 ft 416 kts 24°
2026-05-06 12:19 60.47839 11.24972 19303 ft 405 kts
2026-05-06 12:20 60.50565 11.26556 19922 ft 412 kts 10°
2026-05-06 12:20 60.53270 11.28443 20435 ft 420 kts 12°
2026-05-06 12:20 60.56036 11.30464 20988 ft 425 kts 12°
2026-05-06 12:20 60.58832 11.32516 21562 ft 431 kts 11°
2026-05-06 12:21 60.61678 11.34583 22033 ft 437 kts 11°
2026-05-06 12:21 60.64562 11.36663 22580 ft 441 kts 11°
2026-05-06 12:21 60.67472 11.38753 23121 ft 445 kts 11°
2026-05-06 12:21 60.70411 11.40859 23600 ft 449 kts 10°
2026-05-06 12:22 60.73375 11.42985 24015 ft 454 kts 10°
2026-05-06 12:22 60.76396 11.44745 24405 ft 444 kts 358°
2026-05-06 12:22 60.79402 11.45189 24848 ft 436 kts 351°
2026-05-06 12:22 60.82486 11.45347 25281 ft 440 kts 351°
2026-05-06 12:23 60.85524 11.45558 25730 ft 445 kts 351°
2026-05-06 12:23 60.88643 11.45849 26077 ft 451 kts 352°
2026-05-06 12:23 60.91789 11.46204 26451 ft 455 kts 352°
2026-05-06 12:23 60.94957 11.46599 26866 ft 457 kts 353°
2026-05-06 12:24 60.98143 11.47009 27263 ft 460 kts 353°
2026-05-06 12:24 61.01349 11.47419 27595 ft 464 kts 353°
2026-05-06 12:24 61.04590 11.47826 27926 ft 468 kts 353°
2026-05-06 12:24 61.07855 11.48232 28276 ft 470 kts 352°
2026-05-06 12:25 61.11114 11.48428 28633 ft 468 kts 349°
2026-05-06 12:25 61.14375 11.48413 28941 ft 470 kts 348°
2026-05-06 12:25 61.17658 11.48338 29270 ft 473 kts 348°
2026-05-06 12:25 61.20953 11.48276 29611 ft 475 kts 348°
2026-05-06 12:26 61.24277 11.48246 29905 ft 479 kts 349°
2026-05-06 12:26 61.27618 11.48246 30161 ft 482 kts 349°
2026-05-06 12:26 61.30981 11.48264 30446 ft 484 kts 349°
2026-05-06 12:26 61.34348 11.48286 30825 ft 483 kts 350°
2026-05-06 12:27 61.37661 11.48306 31256 ft 481 kts 350°
2026-05-06 12:27 61.41006 11.48321 31701 ft 478 kts 351°
2026-05-06 12:27 61.44329 11.48332 32119 ft 477 kts 351°
2026-05-06 12:27 61.47650 11.48341 32486 ft 476 kts 351°
2026-05-06 12:28 61.50955 11.48352 32868 ft 475 kts 352°
2026-05-06 12:28 61.54256 11.48361 33220 ft 474 kts 352°
2026-05-06 12:28 61.57552 11.48369 33581 ft 473 kts 352°
2026-05-06 12:28 61.60845 11.48379 33962 ft 472 kts 353°
2026-05-06 12:29 61.64128 11.48389 34240 ft 471 kts 353°
2026-05-06 12:29 61.67405 11.48398 34467 ft 472 kts 353°
2026-05-06 12:29 61.70690 11.48406 34689 ft 473 kts 353°
2026-05-06 12:29 61.73976 11.48415 34926 ft 473 kts 353°
2026-05-06 12:30 61.77267 11.48425 35197 ft 473 kts 354°
2026-05-06 12:30 61.80567 11.48436 35401 ft 474 kts 354°
2026-05-06 12:30 61.83868 11.48447 35667 ft 474 kts 354°
2026-05-06 12:30 61.87134 11.48458 35929 ft 473 kts 354°
2026-05-06 12:31 61.93760 11.48478 35945 ft 478 kts 355°
2026-05-06 12:31 62.00359 11.48525 35930 ft 474 kts 356°
2026-05-06 12:32 62.06940 11.49663 35979 ft 475 kts
2026-05-06 12:32 62.13514 11.51387 35957 ft 476 kts
2026-05-06 12:33 62.20104 11.53060 35952 ft 476 kts
2026-05-06 12:33 62.26694 11.54617 35950 ft 476 kts
2026-05-06 12:34 62.33298 11.56139 35944 ft 477 kts
2026-05-06 12:34 62.39852 11.57653 35953 ft 477 kts
2026-05-06 12:35 62.46469 11.59192 35945 ft 478 kts
2026-05-06 12:35 62.53090 11.60744 35955 ft 478 kts
2026-05-06 12:36 62.59714 11.62303 35887 ft 479 kts
2026-05-06 12:36 62.66338 11.63869 35929 ft 478 kts
2026-05-06 12:37 62.71840 11.65174 35918 ft 478 kts
2026-05-06 12:37 62.78465 11.66754 35928 ft 478 kts
2026-05-06 12:38 62.85088 11.68339 35941 ft 478 kts
2026-05-06 12:38 62.91660 11.69920 35952 ft 477 kts
2026-05-06 12:39 62.98269 11.71516 35968 ft 477 kts
2026-05-06 12:39 63.04872 11.73119 35963 ft 477 kts
2026-05-06 12:40 63.11462 11.74726 35950 ft 476 kts
2026-05-06 12:40 63.18051 11.76340 35955 ft 476 kts
2026-05-06 12:41 63.24586 11.77947 35954 ft 475 kts
2026-05-06 12:41 63.31149 11.79568 35974 ft 474 kts
2026-05-06 12:42 63.37651 11.82269 35955 ft 480 kts 16°
2026-05-06 12:42 63.43906 11.87488 35962 ft 480 kts 17°
2026-05-06 12:43 63.50167 11.92758 35960 ft 480 kts 17°
2026-05-06 12:43 63.56437 11.97909 35992 ft 479 kts 17°
2026-05-06 12:44 63.62677 12.02995 35963 ft 480 kts 17°
2026-05-06 12:44 63.68955 12.08132 35956 ft 480 kts 17°
2026-05-06 12:45 63.75230 12.13299 35956 ft 480 kts 17°
2026-05-06 12:46 63.84638 12.21096 35965 ft 479 kts 17°
2026-05-06 12:46 63.90860 12.26283 35956 ft 479 kts 17°
2026-05-06 12:47 63.97151 12.31551 35944 ft 479 kts 17°
2026-05-06 12:47 64.03383 12.36570 35987 ft 477 kts 16°
2026-05-06 12:48 64.09675 12.41420 35987 ft 477 kts 15°
2026-05-06 12:48 64.15948 12.46291 35979 ft 476 kts 16°
2026-05-06 12:49 64.22222 12.51227 35968 ft 476 kts 16°
2026-05-06 12:49 64.28496 12.56203 35963 ft 476 kts 16°
2026-05-06 12:50 64.34762 12.61197 35944 ft 476 kts 16°
2026-05-06 12:50 64.40992 12.66185 35940 ft 477 kts 16°
2026-05-06 12:51 64.47304 12.71262 35943 ft 477 kts 17°
2026-05-06 12:51 64.53539 12.76302 35941 ft 477 kts 17°
2026-05-06 12:52 64.59807 12.81395 35929 ft 477 kts 17°
2026-05-06 12:52 64.66064 12.86502 35930 ft 476 kts 17°
2026-05-06 12:53 64.72322 12.91633 35922 ft 476 kts 17°
2026-05-06 12:53 64.78561 12.96874 35933 ft 476 kts 18°
2026-05-06 12:54 64.84786 13.02326 35925 ft 476 kts 18°
2026-05-06 12:54 64.90952 13.07767 35916 ft 476 kts 18°
2026-05-06 12:55 64.97150 13.13238 35917 ft 475 kts 18°
2026-05-06 12:55 65.03332 13.18706 35934 ft 474 kts 18°
2026-05-06 12:56 65.09512 13.24195 35921 ft 474 kts 18°
2026-05-06 12:56 65.15687 13.29707 35915 ft 474 kts 18°
2026-05-06 12:57 65.21852 13.35239 35906 ft 473 kts 18°
2026-05-06 12:57 65.28016 13.40799 35892 ft 473 kts 18°
2026-05-06 12:58 65.34171 13.46378 35924 ft 473 kts 18°
2026-05-06 12:58 65.40294 13.51954 35909 ft 474 kts 18°
2026-05-06 12:59 65.46471 13.57609 35889 ft 474 kts 18°
2026-05-06 12:59 65.52637 13.63284 35893 ft 473 kts 19°
2026-05-06 13:00 65.58789 13.68974 35888 ft 474 kts 19°
2026-05-06 13:00 65.64904 13.74658 35906 ft 474 kts 19°
2026-05-06 13:01 65.71057 13.80407 35896 ft 474 kts 19°
2026-05-06 13:01 65.77209 13.86184 35881 ft 473 kts 19°
2026-05-06 13:02 65.83353 13.91983 35887 ft 473 kts 19°
2026-05-06 13:02 65.89492 13.97808 35877 ft 473 kts 19°
2026-05-06 13:03 65.95617 14.03648 35896 ft 472 kts 19°
2026-05-06 13:03 66.01738 14.09516 35880 ft 473 kts 19°
2026-05-06 13:04 66.07863 14.15418 35883 ft 472 kts 19°
2026-05-06 13:04 66.13977 14.21340 35882 ft 472 kts 19°
2026-05-06 13:05 66.20042 14.27245 35883 ft 471 kts 20°
2026-05-06 13:05 66.26139 14.33211 35896 ft 471 kts 20°
2026-05-06 13:06 66.32234 14.39207 35884 ft 470 kts 20°
2026-05-06 13:06 66.38323 14.45229 35886 ft 470 kts 20°
2026-05-06 13:07 66.44403 14.51273 35884 ft 470 kts 20°
2026-05-06 13:07 66.50474 14.57340 35880 ft 470 kts 20°
2026-05-06 13:08 66.56551 14.63445 35890 ft 470 kts 20°
2026-05-06 13:08 66.62620 14.69575 35880 ft 470 kts 20°
2026-05-06 13:09 66.68648 14.75696 35870 ft 470 kts 20°
2026-05-06 13:09 66.74711 14.81884 35863 ft 470 kts 20°
2026-05-06 13:10 66.80771 14.88103 35858 ft 469 kts 20°
2026-05-06 13:10 66.86846 14.94368 35302 ft 476 kts 20°
2026-05-06 13:10 66.89912 14.97542 34751 ft 474 kts 20°
2026-05-06 13:11 66.92969 15.00718 34191 ft 474 kts 21°
2026-05-06 13:11 66.95976 15.03851 33713 ft 471 kts 21°
2026-05-06 13:11 66.98992 15.07002 33180 ft 467 kts 21°
2026-05-06 13:11 67.01986 15.10139 32701 ft 462 kts 21°
2026-05-06 13:12 67.04947 15.13248 32241 ft 457 kts 21°
2026-05-06 13:12 67.07872 15.16327 31791 ft 452 kts 21°
2026-05-06 13:12 67.10776 15.19392 31358 ft 448 kts 21°
2026-05-06 13:12 67.13640 15.22422 30920 ft 443 kts 21°
2026-05-06 13:13 67.16486 15.25441 30492 ft 439 kts 21°
2026-05-06 13:13 67.19297 15.28430 30071 ft 435 kts 21°
2026-05-06 13:13 67.22076 15.31393 29573 ft 430 kts 21°
2026-05-06 13:13 67.24834 15.34340 29098 ft 425 kts 21°
2026-05-06 13:14 67.27546 15.37246 28667 ft 419 kts 21°
2026-05-06 13:14 67.30214 15.40113 28234 ft 413 kts 21°
2026-05-06 13:14 67.32853 15.42954 27807 ft 407 kts 22°
2026-05-06 13:14 67.35420 15.45724 27389 ft 402 kts 22°
2026-05-06 13:15 67.38017 15.48534 26974 ft 397 kts 22°
2026-05-06 13:15 67.40558 15.51289 26540 ft 393 kts 22°
2026-05-06 13:15 67.43031 15.53977 26148 ft 389 kts 22°
2026-05-06 13:15 67.45520 15.56687 25743 ft 385 kts 22°
2026-05-06 13:16 67.47978 15.59369 25335 ft 381 kts 22°
2026-05-06 13:16 67.50410 15.62031 24935 ft 378 kts 22°
2026-05-06 13:16 67.52829 15.64682 24539 ft 375 kts 22°
2026-05-06 13:16 67.55229 15.67320 24144 ft 372 kts 22°
2026-05-06 13:17 67.57604 15.69936 23762 ft 369 kts 22°
2026-05-06 13:17 67.59961 15.72537 23360 ft 366 kts 22°
2026-05-06 13:17 67.62275 15.75097 22912 ft 363 kts 22°
2026-05-06 13:17 67.64589 15.77663 22530 ft 359 kts 22°
2026-05-06 13:18 67.66877 15.80205 22144 ft 355 kts 22°
2026-05-06 13:18 67.69139 15.82724 21766 ft 351 kts 22°
2026-05-06 13:18 67.71382 15.85227 21393 ft 347 kts 22°
2026-05-06 13:18 67.73597 15.87703 21015 ft 344 kts 22°
2026-05-06 13:19 67.75795 15.90165 20657 ft 341 kts 22°
2026-05-06 13:19 67.77973 15.92610 20274 ft 339 kts 22°
2026-05-06 13:19 67.80128 15.95033 19924 ft 335 kts 22°
2026-05-06 13:19 67.82276 15.97454 19548 ft 333 kts 22°
2026-05-06 13:20 67.84397 15.99850 19199 ft 331 kts 22°
2026-05-06 13:20 67.86483 16.02210 18838 ft 329 kts 22°
2026-05-06 13:20 67.88582 16.04587 18493 ft 327 kts 22°
2026-05-06 13:20 67.90676 16.06966 18129 ft 326 kts 22°
2026-05-06 13:21 67.92753 16.09331 17735 ft 324 kts 22°
2026-05-06 13:21 67.94861 16.11341 17411 ft 321 kts 13°
2026-05-06 13:21 67.97045 16.12532 17159 ft 323 kts
2026-05-06 13:21 67.99284 16.13524 16878 ft 326 kts
2026-05-06 13:22 68.01511 16.14495 16563 ft 323 kts
2026-05-06 13:22 68.03713 16.15489 16204 ft 320 kts
2026-05-06 13:22 68.05905 16.16515 15859 ft 317 kts
2026-05-06 13:22 68.08071 16.17557 15497 ft 315 kts
2026-05-06 13:23 68.10218 16.18609 15144 ft 313 kts
2026-05-06 13:23 68.12329 16.19656 14803 ft 311 kts
2026-05-06 13:23 68.14452 16.20717 14458 ft 309 kts
2026-05-06 13:23 68.16558 16.21775 14117 ft 307 kts
2026-05-06 13:24 68.18658 16.22834 13780 ft 306 kts
2026-05-06 13:24 68.20741 16.23888 13420 ft 304 kts
2026-05-06 13:24 68.22815 16.24938 13064 ft 302 kts
2026-05-06 13:24 68.24878 16.25986 12704 ft 300 kts
2026-05-06 13:25 68.26922 16.27027 12399 ft 297 kts
2026-05-06 13:25 68.28955 16.28063 11994 ft 298 kts
2026-05-06 13:25 68.30988 16.29101 11627 ft 296 kts
2026-05-06 13:25 68.32331 16.29788 11408 ft 296 kts
2026-05-06 13:26 68.34348 16.30821 11063 ft 294 kts
2026-05-06 13:26 68.37013 16.32190 10619 ft 292 kts 10°
2026-05-06 13:26 68.38362 16.32884 10394 ft 292 kts 10°
2026-05-06 13:26 68.40337 16.33877 10225 ft 284 kts
2026-05-06 13:27 68.42258 16.34215 10089 ft 275 kts 358°
2026-05-06 13:27 68.44148 16.34101 9977 ft 267 kts 357°
2026-05-06 13:27 68.45980 16.33943 9851 ft 259 kts 357°
2026-05-06 13:27 68.47776 16.33806 9584 ft 257 kts 357°
2026-05-06 13:28 68.49547 16.33693 9329 ft 254 kts 358°
2026-05-06 13:28 68.51312 16.33601 9051 ft 252 kts 358°
2026-05-06 13:28 68.53063 16.33524 8797 ft 251 kts 358°
2026-05-06 13:28 68.54803 16.33457 8539 ft 249 kts 358°
2026-05-06 13:29 68.56536 16.33397 8281 ft 250 kts 358°
2026-05-06 13:29 68.58270 16.33340 8035 ft 256 kts 358°
2026-05-06 13:29 68.60074 16.33283 7758 ft 263 kts 358°
2026-05-06 13:29 68.61906 16.33229 7461 ft 263 kts 359°
2026-05-06 13:30 68.63726 16.33176 7170 ft 261 kts 359°
2026-05-06 13:30 68.65541 16.33123 6899 ft 260 kts 359°
2026-05-06 13:30 68.67345 16.33071 6630 ft 258 kts 359°
2026-05-06 13:30 68.69136 16.33019 6361 ft 257 kts 359°
2026-05-06 13:31 68.70913 16.32986 6164 ft 253 kts
2026-05-06 13:31 68.72573 16.34164 6088 ft 246 kts 33°
2026-05-06 13:31 68.73689 16.37597 6079 ft 241 kts 62°
2026-05-06 13:31 68.74182 16.41916 5950 ft 234 kts 84°
2026-05-06 13:32 68.74250 16.46333 5856 ft 226 kts 88°
2026-05-06 13:32 68.74314 16.50615 5737 ft 220 kts 88°
2026-05-06 13:32 68.74377 16.54787 5628 ft 218 kts 87°
2026-05-06 13:32 68.74440 16.58994 5419 ft 220 kts 89°
2026-05-06 13:33 68.74173 16.63089 5163 ft 219 kts 123°
2026-05-06 13:33 68.73028 16.65476 5002 ft 206 kts 169°
2026-05-06 13:33 68.71638 16.65383 4818 ft 196 kts 186°
2026-05-06 13:33 68.70280 16.65441 4572 ft 193 kts 174°
2026-05-06 13:34 68.68954 16.65667 4379 ft 190 kts 179°
2026-05-06 13:34 68.67673 16.65735 4197 ft 183 kts 178°
2026-05-06 13:34 68.66426 16.65844 4044 ft 174 kts 178°
2026-05-06 13:34 68.65213 16.65973 3932 ft 176 kts 178°
2026-05-06 13:35 68.63974 16.66113 3631 ft 179 kts 178°
2026-05-06 13:35 68.62727 16.66256 3324 ft 180 kts 178°
2026-05-06 13:35 68.61471 16.66399 3005 ft 181 kts 178°
2026-05-06 13:35 68.60212 16.66543 2678 ft 182 kts 178°
2026-05-06 13:36 68.58942 16.66689 2362 ft 184 kts 178°
2026-05-06 13:36 68.57683 16.66833 2042 ft 177 kts 178°
2026-05-06 13:36 68.56477 16.66970 1711 ft 170 kts 178°
2026-05-06 13:36 68.55319 16.67103 1392 ft 163 kts 178°
2026-05-06 13:37 68.54229 16.67228 1099 ft 153 kts 178°
2026-05-06 13:37 68.53178 16.67348 838 ft 149 kts 178°
2026-05-06 13:37 68.52156 16.67464 581 ft 144 kts 177°
2026-05-06 13:37 68.51173 16.67567 318 ft 139 kts 176°
2026-05-06 13:38 68.50205 16.67702 113 ft 139 kts 176°
2026-05-06 13:38 68.49384 16.67816 95 ft 99 kts 178°
2026-05-06 13:38 68.48928 16.67865 92 ft 20 kts 177°
2026-05-06 13:38 68.48886 16.67956 93 ft 8 kts 98°
2026-05-06 13:39 68.48888 16.68104 92 ft 8 kts 86°
2026-05-06 13:39 68.48891 16.68274 93 ft 11 kts 88°
2026-05-06 13:39 68.48893 16.68465 92 ft 8 kts 83°
2026-05-06 13:39 68.48939 16.68524 92 ft 8 kts 359°
2026-05-06 13:40 68.48967 16.68522 94 ft 2 kts 358°
2026-05-06 13:40 68.48974 16.68521 93 ft 0 kts 358°